Location: Couloutre
(47.4081°N, 3.2259°E)
Time: 04:02:12
(UTC+00:00)

STARLINK-56 - Pass Details

Date: 27 February 2020
Orbit: 529 x 530 km, 53.0° (Epoch: 09 April)

Event Time Altitude Azimuth Distance (km) Brightness Sun altitude
Rises 19:34:13 0° 292° (WNW) 2,675 8.6 -22.0°
Reaches altitude 10° 19:36:32 10° 299° (WNW) 1,784 7.2 -22.4°
Enters shadow 19:40:18 41° 8° (N) 784 4.3 -23.0°
